User: anonymous   Login
Location: Mount Wilson Observatory
(34.2257°N, 118.0571°W)
Time: 19:21:56
(UTC-08:00)
Language:

ATLAS 3B CENTAUR R/B - Orbit

View from above orbital plane
View from above orbital plane
View from above satellite
View from above satellite

Ground track
Ground track

The orbit data is extracted from the following two-line orbital elements,

1 28118U 03057B   18018.83924186  .00057667 -32918-6  76575-3 0  9998
2 28118  28.1079 265.1930 2909487 138.2321 248.1144  9.66661819310194
Epoch (UTC): 18 January 2018 20:08:30
Eccentricity: 0.2909487
inclination: 28.1079°
perigee height: 222 km
apogee height: 5639 km
right ascension of ascending node: 265.1930°
argument of perigee: 138.2321°
revolutions per day: 9.66661819
mean anomaly at epoch: 248.1144°
orbit number at epoch: 31019

The dashed part of the orbit path shows where the satellite is in the earth's shadow,  

DLR